sat.trackr.live / text

‹ back to catalog

STARLINK-31003

NORAD 58520 · 2023-191N

PAYLOAD ACTIVE UNKNOWN

§ Identity

Operator
Country
US
Launch date
2023-12-07
Launch site
AFETR
Launch vehicle
Mass (kg)
RCS (m²)

Purposes: comms

External: N2YO · Heavens-Above · Gunter

§ Orbital elements

Epoch: 2026-05-25T01:04:40.605024Z

Period
94.27 min
Inclination
43.0047°
Eccentricity
0.0001348
Mean motion
15.27583517 rev/d
Perigee alt
482.1 km
Apogee alt
484.0 km
Semi-major
6,861.2 km
B*
2.3297e-4
RAAN
31.8103°
Arg perigee
269.7615°
Mean anomaly
90.3082°
Rev number
13,715

§ Raw data

STARLINK-310031 58520U 23191N   26145.04491441  .00006155  00000+0  23297-3 0  99932 58520  43.0047  31.8103 0001348 269.7615  90.3082 15.27583517137151

JSON: /api/v1/satellites/58520 · /tle

For live sub-satellite position, see the globe view (requires WebGL).

§ Visibility from observer

Set your observer location to see the next 7 days of passes ≥ 10°. The values pass through the URL so the page stays shareable.

No JS? Fill the form by hand. The geolocation button needs JavaScript.